AD2FB Weather Reports


Display with metric or nautical units.
time (UTC)temp
F
wind
direction
speed
MPH
gust
MPH
rain 1hr
in
rain 24hr
in
rain mn
in
humidity
%
barometer
mb
20260506001030 64 277 2.0 4.0 0.00 0.12 0.12 76 1007.8
20260506000040 65 259 2.0 4.0 0.00 0.12 0.12 80 1007.8
20260505235027 65 200 1.0 3.0 0.00 0.12 0.12 80 1007.5
20260505234056 65 0.0 0.0 0.00 0.12 0.12 79 1007.5
20260505233025 65 247 0.0 2.0 0.00 0.12 0.12 78 1007.5
20260505232033 66 90 0.0 2.0 0.00 0.12 0.12 78 1007.2
20260505231023 66 0.0 0.0 0.00 0.12 0.12 77 1007.1
20260505230030 67 313 0.0 2.0 0.00 0.12 0.12 76 1007.0
20260505225020 68 248 0.0 3.0 0.00 0.12 0.12 75 1007.0
20260505224048 68 248 2.0 5.0 0.00 0.12 0.12 73 1007.0
20260505223036 68 174 2.0 4.0 0.00 0.12 0.12 73 1007.1
20260505222025 68 282 3.0 7.0 0.00 0.12 0.12 72 1006.9
20260505221033 68 317 4.0 7.0 0.00 0.12 0.12 73 1006.9
20260505220022 68 138 5.0 10.0 0.00 0.12 0.12 70 1006.9
20260505215030 72 219 5.0 12.0 0.00 0.12 0.12 58 1006.6
20260505214041 73 241 5.0 10.0 0.00 0.12 0.12 55 1006.2
20260505213028 74 288 2.0 5.0 0.00 0.12 0.12 55 1005.8
20260505212036 75 324 4.0 8.0 0.00 0.12 0.12 55 1005.8
20260505211025 76 249 3.0 5.0 0.00 0.12 0.12 55 1005.8
20260505210033 77 192 4.0 6.0 0.01 0.12 0.12 55 1005.8
20260505205023 76 324 4.0 7.0 0.01 0.12 0.12 56 1005.8
20260505204030 75 268 5.0 10.0 0.01 0.12 0.12 58 1006.1
20260505203020 75 355 5.0 7.0 0.01 0.12 0.12 58 1006.1
20260505202028 75 157 6.0 10.0 0.01 0.12 0.12 60 1006.4
20260505201036 74 248 5.0 9.0 0.01 0.12 0.12 63 1006.5
20260505200025 74 279 3.0 5.0 0.00 0.11 0.11 66 1006.7
20260505195032 73 218 5.0 8.0 0.00 0.11 0.11 67 1006.7
20260505194022 73 231 3.0 6.0 0.00 0.11 0.11 70 1007.0
20260505193051 71 288 2.0 4.0 0.01 0.11 0.11 76 1007.0
20260505192020 67 161 3.0 5.0 0.01 0.11 0.11 82 1007.1
20260505191028 64 227 3.0 6.0 0.02 0.11 0.11 86 1007.5
20260505190035 64 155 4.0 8.0 0.07 0.11 0.11 83 1007.5
20260505185025 64 212 3.0 6.0 0.10 0.11 0.11 85 1007.4
20260505184033 65 279 3.0 7.0 0.10 0.11 0.11 85 1007.0
20260505183022 66 147 1.0 2.0 0.09 0.10 0.10 85 1006.7
20260505182030 65 255 2.0 3.0 0.09 0.10 0.10 84 1006.2
20260505181020 65 180 4.0 6.0 0.08 0.09 0.09 86 1006.2
20260505180028 73 294 4.0 7.0 0.03 0.04 0.04 61 1005.8
20260505175035 75 278 3.0 5.0 0.00 0.01 0.01 50 1005.7
20260505174025 75 254 6.0 10.0 0.00 0.01 0.01 49 1005.9
20260505173113 77 295 5.0 7.0 0.00 0.01 0.01 46 1005.9
20260505172042 76 243 4.0 6.0 0.00 0.01 0.01 48 1006.3
20260505171030 76 234 4.0 7.0 0.00 0.01 0.01 48 1006.4
20260505170040 75 153 5.0 9.0 0.00 0.01 0.01 49 1006.7
20260505165027 74 99 4.0 7.0 0.00 0.01 0.01 50 1006.7
20260505164036 74 262 2.0 3.0 0.00 0.01 0.01 50 1006.5
20260505163030 74 287 5.0 8.0 0.00 0.01 0.01 49 1006.5
20260505162033 74 212 5.0 12.0 0.00 0.01 0.01 49 1006.2
20260505161022 74 339 4.0 7.0 0.00 0.01 0.01 49 1006.2
20260505153035 76 282 5.0 8.0 0.00 0.01 0.01 48 1006.7
20260505152024 75 281 6.0 9.0 0.00 0.01 0.01 49 1006.9
20260505151032 76 302 6.0 12.0 0.00 0.01 0.01 49 1006.7
20260505125031 69 191 2.0 5.0 0.00 0.01 0.01 62 1006.9
20260505124040 67 238 3.0 4.0 0.00 0.01 0.01 65 1006.9
20260505123028 67 244 2.0 4.0 0.00 0.01 0.01 67 1007.1
20260505122036 64 260 4.0 11.0 0.00 0.01 0.01 72 1007.2
20260505121046 62 122 3.0 8.0 0.00 0.01 0.01 79 1007.3
20260505120033 58 170 2.0 3.0 0.00 0.01 0.01 89 1007.3
20260505115023 57 245 1.0 3.0 0.00 0.01 0.01 97 1007.2
20260505114031 56 227 2.0 4.0 0.00 0.01 0.01 99 1007.3
20260505113020 55 0.0 0.0 0.00 0.01 0.01 99 1007.1
20260505112049 55 0.0 0.0 0.00 0.01 0.01 99 1006.9
20260505111036 53 248 0.0 3.0 0.00 0.01 0.01 99 1006.8
20260505102041 52 0.0 0.0 0.01 0.01 0.01 99 1006.6
20260505101029 52 118 1.0 2.0 0.01 0.01 0.01 99 1006.6
20260505100037 53 0.0 0.0 0.01 0.01 0.01 99 1006.6
20260505095027 53 225 0.0 2.0 0.01 0.01 0.01 99 1006.6
20260505094054 53 0.0 0.0 0.01 0.01 0.01 98 1006.6
20260505093025 52 240 1.0 3.0 0.01 0.01 0.01 96 1007.0
20260505092032 52 128 1.0 2.0 0.00 0.00 0.00 94 1007.2
20260505091021 51 270 0.0 2.0 0.00 0.00 0.00 92 1007.0
20260505090049 51 158 0.0 2.0 0.00 0.00 0.00 91 1006.6
20260505085019 51 283 0.0 2.0 0.00 0.00 0.00 91 1006.6
20260505084027 51 275 1.0 3.0 0.00 0.00 0.00 90 1006.3
20260505083035 51 304 1.0 2.0 0.00 0.00 0.00 89 1006.2
20260505082024 52 0.0 0.0 0.00 0.00 0.00 89 1006.1
20260505081033 52 0.0 0.0 0.00 0.00 0.00 88 1006.1
20260505080021 53 234 1.0 3.0 0.00 0.00 0.00 87 1006.1
20260505075030 53 81 1.0 3.0 0.00 0.00 0.00 86 1006.1
20260505074019 54 286 1.0 2.0 0.00 0.00 0.00 84 1006.1
20260505073027 55 0.0 0.0 0.00 0.00 0.00 82 1006.0
20260505072035 55 276 1.0 3.0 0.00 0.00 0.00 81 1006.0
20260505071025 56 0.0 0.0 0.00 0.00 0.00 80 1006.0
20260505070053 57 0.0 0.0 0.00 0.00 0.00 77 1006.0
20260505065122 58 189 1.0 3.0 0.00 0.00 0.00 75 1006.2
20260505064030 58 270 0.0 2.0 0.00 0.00 0.00 75 1006.3
20260505063019 58 0.0 0.0 0.00 0.00 0.00 73 1006.4
20260505062028 59 247 1.0 4.0 0.00 0.00 0.00 73 1006.4
20260505061036 58 113 0.0 2.0 0.00 0.00 0.00 73 1006.4
20260505060126 57 113 0.0 2.0 0.00 0.00 0.00 75 1006.4
20260505055033 57 132 1.0 3.0 0.00 0.00 0.00 76 1006.3
20260505054023 57 259 1.0 3.0 0.00 0.00 0.00 76 1006.3
20260505053031 56 264 1.0 3.0 0.00 0.00 0.00 76 1006.5
20260505052040 56 319 0.0 3.0 0.00 0.00 0.00 76 1006.5
20260505051048 57 0.0 0.0 0.00 0.00 0.00 74 1006.5
20260505041021 60 236 1.0 4.0 0.00 0.00 0.00 66 1006.4
20260505040029 60 172 1.0 3.0 0.00 0.00 0.00 65 1006.4
20260505035036 60 197 1.0 2.0 0.00 0.00 0.00 64 1006.4
20260505034026 59 272 2.0 3.0 0.00 0.00 0.00 65 1006.2
20260505033054 58 273 2.0 4.0 0.00 0.00 0.00 64 1006.2
20260505032023 57 289 3.0 4.0 0.00 0.00 0.00 66 1006.2
20260505031031 55 269 2.0 5.0 0.00 0.00 0.00 68 1006.2
20260505030021 55 63 1.0 3.0 0.00 0.00 0.00 68 1006.2
20260505025028 55 0.0 0.0 0.00 0.00 0.00 66 1006.2
20260505024037 56 98 1.0 2.0 0.00 0.00 0.00 65 1006.3
20260505023026 56 304 0.0 2.0 0.00 0.00 0.00 63 1006.2
20260505022034 57 270 0.0 1.0 0.00 0.00 0.00 61 1006.3
20260505021024 58 293 0.0 2.0 0.00 0.00 0.00 60 1006.3
20260505020051 59 263 0.0 3.0 0.00 0.00 0.00 57 1006.3
20260505015021 60 260 1.0 2.0 0.00 0.00 0.00 56 1006.2
20260505014029 61 263 1.0 2.0 0.00 0.00 0.00 53 1006.2
20260505013037 62 191 0.0 2.0 0.00 0.00 0.00 51 1006.2
20260505012046 63 230 1.0 2.0 0.00 0.00 0.00 49 1006.2
20260505011034 64 212 2.0 3.0 0.00 0.00 0.00 46 1005.9
20260505010044 65 213 0.0 2.0 0.00 0.00 0.00 43 1005.9
20260505005032 66 182 0.0 2.0 0.00 0.00 0.00 40 1005.7
20260505004022 67 240 1.0 2.0 0.00 0.00 0.00 38 1005.5
20260505003030 68 208 1.0 2.0 0.00 0.00 0.00 37 1005.5
20260505002019 69 241 1.0 4.0 0.00 0.00 0.00 35 1005.5